KJ7AZ-3 Weather Reports


time (UTC)temp
F
wind
direction
speed
knots
gust
knots
rain 1hr
in
rain 24hr
in
rain mn
in
humidity
%
barometer
mb
20260905193419 87 342 1.7 3.5 0.00 0.00 0.00
20260905191919 88 34 0.9 0.0 0.00 0.00 0.00
20260905190418 86 335 0.9 3.5 0.00 0.00 0.00
20260905181917 87 359 4.3 5.2 0.00 0.00 0.00
20260905174916 86 330 1.7 0.9 0.00 0.00 0.00
20260905173416 87 235 1.7 2.6 0.00 0.00 0.00
20260905171916 88 13 1.7 2.6 0.00 0.00 0.00
20260905170415 86 248 1.7 0.0 0.00 0.00 0.00
20260905164915 85 10 0.0 0.0 0.00 0.00 0.00
20260905163415 85 359 0.0 0.9 0.00 0.00 0.00
20260905154914 83 297 0.0 0.0 0.00 0.00 0.00
20260905153414 84 314 0.0 0.0 0.00 0.00 0.00
20260905151913 84 284 0.0 0.0 0.00 0.00 0.00
20260905150413 83 256 0.0 0.0 0.00 0.00 0.00
20260905143414 81 107 0.0 0.0 0.00 0.00 0.00
20260905141915 80 107 0.0 0.0 0.00 0.00 0.00
20260905140415 78 107 0.0 0.0 0.00 0.00 0.00
20260905134915 72 107 0.0 0.0 0.00 0.00 0.00
20260905133415 69 107 0.0 0.0 0.00 0.00 0.00
20260905131917 65 107 0.0 0.0 0.00 0.00 0.00
20260905130416 63 107 0.0 0.0 0.00 0.00 0.00
20260905123416 62 107 0.0 0.0 0.00 0.00 0.00
20260905120416 62 107 0.0 0.0 0.00 0.00 0.00
20260905114917 63 107 0.0 0.0 0.00 0.00 0.00
20260905111916 61 107 0.0 0.0 0.00 0.00 0.00
20260905110416 62 107 0.0 0.0 0.00 0.00 0.00
20260905104916 62 107 0.0 0.0 0.00 0.00 0.00
20260905103416 62 107 0.0 0.0 0.00 0.00 0.00
20260905101916 63 107 0.0 0.0 0.00 0.00 0.00
20260905100416 65 107 0.0 0.0 0.00 0.00 0.00
20260905094915 65 107 0.0 0.0 0.00 0.00 0.00
20260905093416 65 107 0.0 0.0 0.00 0.00 0.00
20260905091916 65 107 0.0 0.0 0.00 0.00 0.00
20260905090416 65 107 0.0 0.0 0.00 0.00 0.00
20260905084916 65 107 0.0 0.0 0.00 0.00 0.00
20260905083416 64 107 0.0 0.0 0.00 0.00 0.00
20260905081916 65 107 0.0 0.0 0.00 0.00 0.00
20260905080416 64 107 0.0 0.0 0.00 0.00 0.00
20260905074916 64 107 0.0 0.0 0.00 0.00 0.00
20260905073416 66 69 0.0 2.6 0.00 0.00 0.00
20260905071916 66 174 0.0 0.0 0.00 0.00 0.00
20260905070416 65 174 0.0 0.0 0.00 0.00 0.00
20260905064916 65 174 0.0 0.0 0.00 0.00 0.00
20260905063416 65 174 0.0 0.0 0.00 0.00 0.00
20260905061917 64 174 0.0 0.0 0.00 0.00 0.00
20260905060417 65 174 0.0 0.0 0.00 0.00 0.00
20260905054917 64 174 0.0 0.0 0.00 0.00 0.00
20260905053417 65 174 0.0 0.0 0.00 0.00 0.00
20260905051917 63 174 0.0 0.0 0.00 0.00 0.00
20260905050417 64 174 0.0 0.0 0.00 0.00 0.00
20260905044917 65 174 0.0 0.0 0.00 0.00 0.00
20260905043417 65 174 0.0 0.0 0.00 0.00 0.00
20260905041917 65 174 0.0 0.0 0.00 0.00 0.00
20260905040416 65 174 0.0 0.0 0.00 0.00 0.00
20260905034916 65 174 0.0 0.0 0.00 0.00 0.00
20260905033417 67 174 0.0 0.0 0.00 0.00 0.00
20260905031917 68 174 0.0 0.0 0.00 0.00 0.00
20260905030417 69 174 0.0 0.0 0.00 0.00 0.00
20260905024917 69 174 0.0 0.0 0.00 0.00 0.00
20260905023417 71 174 0.0 0.0 0.00 0.00 0.00
20260905021917 71 174 0.0 0.0 0.00 0.00 0.00
20260905020417 71 150 0.0 0.0 0.00 0.00 0.00
20260905014916 71 132 1.7 1.7 0.00 0.00 0.00
20260905013416 73 179 1.7 0.0 0.00 0.00 0.00
20260905011916 74 134 2.6 0.9 0.00 0.00 0.00
20260905010416 75 158 1.7 5.2 0.00 0.00 0.00
20260905004916 75 149 1.7 1.7 0.00 0.00 0.00
20260905001915 76 86 2.6 0.9 0.00 0.00 0.00
20260905000417 77 181 3.5 1.7 0.00 0.00 0.00
20260904234915 78 165 5.2 2.6 0.00 0.00 0.00
20260904233414 81 149 0.9 0.0 0.00 0.00 0.00
20260904231914 84 91 0.9 0.0 0.00 0.00 0.00
20260904230413 84 110 1.7 0.9 0.00 0.00 0.00
20260904224914 83 82 4.3 3.5 0.00 0.00 0.00
20260904220412 85 97 7.0 3.5 0.00 0.00 0.00
20260904214911 88 58 7.0 4.3 0.00 0.00 0.00
20260904211909 87 87 9.6 6.1 0.00 0.00 0.00
20260904210409 92 8 7.0 10.4 0.00 0.00 0.00
20260904204909 89 322 4.3 4.3 0.00 0.00 0.00
20260904203408 89 263 0.9 0.0 0.00 0.00 0.00
20260904201907 90 6 0.0 2.6 0.00 0.00 0.00
20260904200407 89 301 0.0 0.0 0.00 0.00 0.00
20260904194906 89 41 0.0 3.5 0.00 0.00 0.00